Location: Boiro
(42.6475°N, 8.8834°W)
Time: 02:36:32
(UTC+02:00)

LINGQIAO VIDEO B - Pass Details

Date: 05 July 2022
Orbit: 636 x 662 km, 97.7° (Epoch: 14 August)

Event Time Altitude Azimuth Distance (km) Brightness Sun altitude
Rises 23:11:36 0° 183° (S) 2,966 ? -8.9°
Reaches altitude 10° 23:13:54 10° 190° (S) 2,064 ? -9.2°
Maximum altitude 23:18:11 42° 262° (W) 936 ? -9.8°
Drops below altitude 10° 23:22:32 10° 334° (NNW) 2,089 ? -10.3°
Sets 23:24:52 0° 341° (NNW) 3,008 ? -10.7°
